User: anonymous   Login
Location: Ballingbuur
(53.0000°N, 5.7667°E)
Time: 05:35:34
(UTC+00:00)
Language:

Okean 3 Rocket - Orbit

View from above orbital plane
View from above orbital plane
View from above satellite
View from above satellite

Ground track
Ground track

The orbit data is extracted from the following two-line orbital elements,

1 21398U 91039B   21055.83672508  .00000104  00000-0  10637-4 0  9993
2 21398  82.5210  50.6280 0022986  82.3745 278.0077 14.79790253582317
Epoch (UTC): 24 February 2021 20:04:53
Eccentricity: 0.0022986
inclination: 82.5210°
perigee height: 614 km
apogee height: 646 km
right ascension of ascending node: 50.6280°
argument of perigee: 82.3745°
revolutions per day: 14.79790253
mean anomaly at epoch: 278.0077°
orbit number at epoch: 58231

The dashed part of the orbit path shows where the satellite is in the earth's shadow,  

DLR